Location: Middlebury
(44.0133°N, 73.1813°W)
Time: 12:12:12
(UTC-05:00)

ISS - Pass Details

Date: 04 December 2021
Orbit: 413 x 422 km, 51.6° (Epoch: 28 January)

Event Time Altitude Azimuth Distance (km) Brightness Sun altitude
Rises 18:00:47 0° 301° (WNW) 2,386 0.8 -18.4°
Reaches altitude 10° 18:02:55 10° 303° (WNW) 1,516 -0.3 -18.7°
Maximum altitude 18:06:19 82° 30° (NNE) 432 -3.9 -19.3°
Enters shadow 18:06:30 77° 83° (E) 438 -3.9 -19.4°
